[[{"header":{"parameterUnit":"m.s-1","parameterCategory":1,"la1":30.2991,"la2":30.254,"lo1":-89.0895,"lo2":-89.0444,"dy":0.0017,"dx":0.0017,"nx":28,"ny":28,"refTime":"2025-04-25T21:00:00:Z","depth":0,"parameterNumber":2,"parameterNumberName":"U-component_of_WINDS"},"data":[0,0,0,0,0,0,0,0,0,0,0,0,0,0,0,0,0,0,0,0,0,0,0,0,0,0,0,0,0,0,0,0,0,0,0,0,0,0,0,0,0,0,0,0,0,0,0,0,0,0,0,0,0,0,0,0,0,0,-0.525,-0.5249,0,-0.5146,-0.5145,-0.5144,-0.5087,-0.5087,-0.5087,-0.5087,-0.4984,-0.4981,-0.4979,0,0,0,0,0,0,0,0,0,0,0,0,0,-0.5404,-0.5401,-0.525,-0.5249,-0.5247,-0.5146,-0.5145,-0.5143,-0.5087,-0.5087,-0.5087,-0.5087,-0.4985,-0.4981,-0.4978,0,0,0,0,0,0,0,0,0,0,0,0,0,-0.5322,-0.54,-0.525,-0.5207,-0.5202,-0.5146,-0.5145,-0.5143,-0.5087,-0.5087,-0.5087,-0.5087,-0.4986,-0.4982,-0.4978,-0.4958,0,0,-0.4966,-0.4964,0,0,0,0,0,0,0,0,-0.5327,-0.5317,-0.5215,-0.521,-0.5204,-0.5129,-0.5161,-0.5081,-0.5087,-0.5131,-0.5087,-0.5086,-0.5033,-0.5025,-0.5006,-0.4953,-0.4949,-0.4966,-0.4963,-0.4962,-0.496,0,0,0,0,0,0,0,-0.5333,-0.5321,-0.5209,-0.5213,-0.5207,-0.5194,-0.5182,-0.5146,-0.5084,-0.5127,-0.5123,-0.5111,-0.503,-0.501,-0.5003,-0.4947,-0.4966,-0.4962,-0.496,-0.4958,-0.4874,-0.4874,0,0,0,0,0,0,-0.5345,-0.5326,-0.5212,-0.5206,-0.5266,-0.5192,-0.5178,-0.5154,-0.5085,-0.5074,-0.5111,-0.5109,-0.5017,-0.5008,-0.4999,-0.4971,-0.4962,-0.4958,-0.4956,-0.4874,-0.4874,-0.4874,0,0,0,0,0,0,-0.5348,-0.5335,-0.5216,-0.5265,-0.5248,-0.5189,-0.5162,-0.5152,-0.5131,-0.5073,-0.5062,-0.5102,-0.5016,-0.5005,-0.4969,-0.4967,-0.4956,-0.4953,-0.4874,-0.4874,-0.4874,-0.4916,0,0,0,0,0,0,-0.5353,-0.5337,-0.5328,-0.5265,-0.5246,-0.5186,-0.5162,-0.515,-0.5125,-0.512,-0.5061,-0.5051,-0.5015,-0.4975,-0.4965,-0.4961,-0.495,-0.4874,-0.4874,-0.4874,-0.4914,-0.4917,-0.492,0,0,0,0,0,-0.5359,-0.5344,-0.5327,-0.5314,-0.5233,-0.5186,-0.5176,-0.5134,-0.5125,-0.5116,-0.5078,-0.5053,-0.4969,-0.4972,-0.496,-0.4955,-0.4874,-0.4874,-0.4874,-0.4913,-0.4917,-0.492,0,0,0,0,0,0,-0.541,-0.5335,-0.5316,-0.528,-0.524,-0.5177,-0.5164,-0.5139,-0.5102,-0.5099,-0.505,-0.5037,-0.5006,-0.4977,-0.4981,-0.4933,-0.4919,-0.4917,-0.4952,-0.4956,-0.4958,-0.4966,-0.4946,0,0,0,0,0,-0.5416,-0.5383,-0.5321,-0.5296,-0.5276,-0.5224,-0.5202,-0.5173,-0.513,-0.5113,-0.5072,-0.5033,-0.4997,-0.4975,-0.4939,-0.4911,-0.4897,-0.4902,-0.4905,-0.4907,-0.4906,-0.4889,-0.489,-0.4875,-0.4875,-0.4875,0,0,-0.5431,-0.5386,-0.5368,-0.5305,-0.527,-0.5238,-0.521,-0.5177,-0.5153,-0.5108,-0.5071,-0.5041,-0.4993,-0.4961,-0.4944,-0.4936,-0.4907,-0.4908,-0.491,-0.4907,-0.4889,-0.4891,-0.4892,-0.4875,-0.4875,-0.4875,0,0,-0.544,-0.5403,-0.5378,-0.5343,-0.5291,-0.5256,-0.5251,-0.5191,-0.5169,-0.5131,-0.5096,-0.5068,-0.5008,-0.4976,-0.4951,-0.4949,-0.4925,-0.494,-0.4954,-0.4938,-0.4939,-0.494,-0.4939,-0.494,-0.4938,-0.4939,-0.4939,0,-0.5465,-0.5414,-0.5368,-0.5337,-0.5311,-0.5267,-0.5242,-0.5212,-0.5151,-0.5134,-0.5126,-0.505,-0.5015,-0.4974,-0.4974,-0.4955,-0.4948,-0.4945,-0.4942,-0.4943,-0.4943,-0.4942,-0.4942,-0.4941,-0.494,-0.494,-0.494,0,-0.5447,-0.5412,-0.5398,-0.5339,-0.5311,-0.5283,-0.5235,-0.5212,-0.5187,-0.5153,-0.5116,-0.5072,-0.5027,-0.5016,-0.499,-0.4972,-0.4968,-0.4952,-0.4936,-0.4947,-0.4945,-0.4944,-0.4943,-0.4943,-0.4942,-0.4942,0,0,-0.5484,-0.5401,-0.5396,-0.5369,-0.5308,-0.5281,-0.5252,-0.5207,-0.5189,-0.5149,-0.5124,-0.5074,-0.5059,-0.5031,-0.5002,-0.4988,-0.499,-0.4973,-0.4972,-0.4978,-0.4967,-0.4979,-0.4979,-0.4974,-0.4973,-0.4973,-0.4971,0,-0.5485,-0.5428,-0.5387,-0.5347,-0.5315,-0.5274,-0.5249,-0.521,-0.5179,-0.5148,-0.5114,-0.5079,-0.5062,-0.5045,-0.5029,-0.4993,-0.4987,-0.4993,-0.495,-0.4949,-0.4963,-0.4978,-0.499,-0.499,-0.497,-0.4969,-0.4969,0,-0.5477,-0.5437,-0.5394,-0.5336,-0.5321,-0.5299,-0.5254,-0.5225,-0.5181,-0.5159,-0.5129,-0.5099,-0.5068,-0.5056,-0.5013,-0.5018,-0.4999,-0.4979,-0.4978,-0.4971,-0.4959,-0.4972,-0.4989,-0.4989,-0.4968,-0.4968,-0.4968,0,-0.5509,-0.5444,-0.541,-0.5388,-0.532,-0.5306,-0.5277,-0.5232,-0.5208,-0.517,-0.5153,-0.5113,-0.509,-0.506,-0.5021,-0.5016,-0.4982,-0.4967,-0.4963,-0.4965,-0.4957,-0.4958,-0.4971,-0.4946,-0.4946,-0.4946,-0.4946,0,-0.5513,-0.5488,-0.5423,-0.5402,-0.5373,-0.5327,-0.53,-0.5268,-0.5229,-0.5202,-0.5165,-0.5141,-0.509,-0.506,-0.5029,-0.4999,-0.4989,-0.4971,-0.4963,-0.4974,-0.4976,-0.496,-0.4959,-0.4946,-0.4946,-0.4946,-0.4946,0,-0.5543,-0.5498,-0.5458,-0.5397,-0.5381,-0.5363,-0.5311,-0.529,-0.5257,-0.5223,-0.5213,-0.5161,-0.5124,-0.5082,-0.5032,-0.5011,-0.4982,-0.4971,-0.4997,-0.4992,-0.4991,-0.4991,-0.4993,-0.4991,-0.4969,-0.4969,-0.4969,0,-0.5548,-0.5528,-0.5465,-0.5443,-0.5415,-0.5381,-0.5356,-0.531,-0.5285,-0.5233,-0.5218,-0.5178,-0.5144,-0.5087,-0.5046,-0.5007,-0.4994,-0.4998,-0.4988,-0.5,-0.4994,-0.4995,-0.4993,-0.5,-0.5001,-0.5001,-0.5001,0,-0.5563,-0.5541,-0.5505,-0.5461,-0.5431,-0.5395,-0.5357,-0.5342,-0.5289,-0.5264,-0.5225,-0.5198,-0.5146,-0.5107,-0.5063,-0.5035,-0.501,-0.5005,-0.5002,-0.5012,-0.5028,-0.5019,-0.5003,-0.5005,-0.5004,-0.5004,-0.5004,-0.5004,-0.558,-0.556,-0.5512,-0.5473,-0.5439,-0.5405,-0.5382,-0.5345,-0.5311,-0.5264,-0.524,-0.5202,-0.5159,-0.5097,-0.507,-0.5041,-0.5032,-0.5028,-0.5027,-0.5026,-0.5029,-0.5033,-0.5033,-0.5033,-0.5032,-0.5032,-0.5032,0,-0.5592,-0.5559,-0.5523,-0.5471,-0.5441,-0.5418,-0.5376,-0.5352,-0.5318,-0.5279,-0.5246,-0.5201,-0.5164,-0.512,-0.5079,-0.5064,-0.5052,-0.5055,-0.5056,-0.505,-0.5039,-0.5046,-0.5066,-0.5066,-0.5066,-0.5066,-0.5066,-0.5066,-0.5595,-0.5559,-0.5532,-0.5481,-0.5448,-0.5409,-0.5386,-0.5355,-0.5324,-0.5275,-0.5243,-0.5214,-0.5174,-0.513,-0.5095,-0.5083,-0.507,-0.5077,-0.5062,-0.5053,-0.505,-0.5048,-0.5053,-0.5075,-0.5075,-0.5075,-0.5075,-0.5075]},{"header":{"parameterUnit":"m.s-1","parameterCategory":1,"la1":30.2991,"la2":30.254,"lo1":-89.0895,"lo2":-89.0444,"dy":0.0017,"dx":0.0017,"nx":28,"ny":28,"refTime":"2025-04-25T21:00:00:Z","depth":0,"parameterNumber":3,"parameterNumberName":"V-component_of_WINDS"},"data":[0,0,0,0,0,0,0,0,0,0,0,0,0,0,0,0,0,0,0,0,0,0,0,0,0,0,0,0,0,0,0,0,0,0,0,0,0,0,0,0,0,0,0,0,0,0,0,0,0,0,0,0,0,0,0,0,0,0,4.2219,4.2218,0,4.218,4.2179,4.2179,4.2175,4.2175,4.2176,4.2176,4.2131,4.2129,4.2128,0,0,0,0,0,0,0,0,0,0,0,0,0,4.2286,4.2285,4.2219,4.2218,4.2218,4.218,4.2179,4.2178,4.2175,4.2175,4.2176,4.2176,4.2132,4.213,4.2128,0,0,0,0,0,0,0,0,0,0,0,0,0,4.2253,4.2284,4.2219,4.2211,4.221,4.218,4.2179,4.2178,4.2175,4.2175,4.2176,4.2177,4.2132,4.213,4.2127,4.21,0,0,4.212,4.2119,0,0,0,0,0,0,0,0,4.2255,4.225,4.2213,4.2212,4.2211,4.2183,4.2186,4.2152,4.2174,4.2188,4.2176,4.2177,4.2147,4.2144,4.2135,4.2098,4.2096,4.212,4.2118,4.2117,4.2117,0,0,0,0,0,0,0,4.2257,4.2252,4.2203,4.2212,4.2211,4.2209,4.2205,4.218,4.2164,4.2187,4.2187,4.2182,4.2147,4.2137,4.2134,4.2095,4.212,4.2118,4.2116,4.2115,4.2035,4.2034,0,0,0,0,0,0,4.2261,4.2254,4.2204,4.2202,4.2235,4.2207,4.2202,4.2191,4.2165,4.2161,4.2182,4.2182,4.2141,4.2137,4.2132,4.2099,4.2117,4.2115,4.2114,4.2035,4.2034,4.2034,0,0,0,0,0,0,4.2263,4.2257,4.2206,4.2228,4.2221,4.2205,4.2192,4.219,4.218,4.2161,4.2158,4.2175,4.2141,4.2136,4.2109,4.2097,4.2114,4.2112,4.2036,4.2035,4.2034,4.2032,0,0,0,0,0,0,4.2265,4.2257,4.2248,4.2228,4.222,4.2184,4.2192,4.2189,4.2177,4.2177,4.2154,4.215,4.2141,4.2112,4.2106,4.2094,4.211,4.2037,4.2036,4.2034,4.2033,4.2031,4.2029,0,0,0,0,0,4.2267,4.2247,4.2247,4.2241,4.2208,4.2183,4.2179,4.217,4.2176,4.2165,4.2153,4.2151,4.21,4.2109,4.2103,4.209,4.2038,4.2036,4.2034,4.2034,4.2031,4.2029,0,0,0,0,0,0,4.2264,4.2244,4.2244,4.2218,4.2203,4.2183,4.2169,4.2168,4.2149,4.215,4.2139,4.2133,4.2107,4.2096,4.2107,4.2062,4.2069,4.2066,4.2071,4.2068,4.2067,4.207,4.2108,0,0,0,0,0,4.2261,4.2244,4.2227,4.2205,4.2198,4.2185,4.2174,4.2169,4.2152,4.2145,4.2131,4.2113,4.2093,4.208,4.2061,4.2031,4.2026,4.2019,4.2018,4.2016,4.2013,4.1998,4.1995,4.2028,4.2028,4.2028,0,0,4.2253,4.224,4.223,4.2205,4.2192,4.2174,4.218,4.216,4.2146,4.2142,4.2116,4.2105,4.2085,4.2057,4.2044,4.2046,4.2003,4.2014,4.2013,4.2011,4.1996,4.1993,4.199,4.2027,4.2028,4.2028,0,0,4.223,4.2218,4.22,4.2188,4.217,4.2162,4.2157,4.2138,4.2131,4.2106,4.2102,4.2085,4.2051,4.2037,4.2025,4.1998,4.1996,4.1992,4.1982,4.1967,4.1964,4.1962,4.1952,4.1949,4.1989,4.1989,4.1989,0,4.2222,4.2196,4.2189,4.2171,4.216,4.2157,4.2137,4.2125,4.2101,4.2093,4.2097,4.2055,4.2041,4.201,4.2004,4.1994,4.1988,4.1994,4.1965,4.1963,4.1961,4.1952,4.1948,4.1989,4.1989,4.1989,4.1989,0,4.2187,4.2169,4.2156,4.2135,4.2123,4.2103,4.2093,4.2081,4.2077,4.2068,4.2042,4.2026,4.2003,4.1995,4.1991,4.1964,4.1967,4.1968,4.1974,4.1957,4.1949,4.1945,4.1989,4.1989,4.1989,4.1989,0,0,4.216,4.2137,4.2133,4.2124,4.2104,4.209,4.207,4.205,4.204,4.2024,4.2007,4.1978,4.198,4.1967,4.1961,4.1948,4.1928,4.1951,4.195,4.1947,4.1898,4.1897,4.1893,4.1927,4.1926,4.1925,4.19,0,4.2135,4.2102,4.2096,4.2067,4.205,4.2048,4.2031,4.2017,4.2009,4.1992,4.1982,4.1962,4.1966,4.1958,4.1945,4.1933,4.1918,4.1935,4.191,4.1909,4.1915,4.1889,4.1887,4.1864,4.1896,4.1896,4.1895,0,4.2101,4.2086,4.2056,4.204,4.2033,4.2018,4.2,4.1984,4.1968,4.1963,4.1949,4.1945,4.1924,4.1932,4.1902,4.1914,4.1903,4.1896,4.1895,4.1892,4.1901,4.1885,4.1857,4.1853,4.189,4.189,4.1891,0,4.2084,4.2057,4.2036,4.2028,4.2009,4.1998,4.199,4.1974,4.1963,4.1946,4.1939,4.1919,4.1909,4.1893,4.1883,4.189,4.1855,4.1862,4.1849,4.1849,4.1841,4.1842,4.1811,4.1834,4.1834,4.1835,4.1835,0,4.2057,4.2038,4.2028,4.2015,4.1994,4.1988,4.1967,4.1958,4.1945,4.1929,4.1925,4.191,4.1898,4.1881,4.1873,4.1851,4.1845,4.184,4.1838,4.184,4.1841,4.1833,4.1834,4.1834,4.1834,4.1834,4.1834,0,4.2035,4.2027,4.2004,4.1989,4.1985,4.197,4.1956,4.1943,4.1935,4.1915,4.191,4.1897,4.1877,4.1866,4.184,4.1835,4.181,4.1808,4.1816,4.1815,4.1803,4.1804,4.1765,4.176,4.1787,4.1787,4.1787,0,4.2018,4.2004,4.1988,4.1978,4.197,4.1954,4.1943,4.1936,4.1924,4.1906,4.1895,4.1875,4.1859,4.1827,4.1815,4.1795,4.1793,4.1781,4.179,4.1794,4.1794,4.1795,4.1793,4.1779,4.1779,4.1779,4.1779,0,4.1988,4.1986,4.1971,4.1956,4.1944,4.193,4.1917,4.1909,4.1899,4.1886,4.1867,4.1855,4.183,4.1811,4.1791,4.178,4.1778,4.1776,4.1772,4.1774,4.178,4.1777,4.1812,4.1777,4.1777,4.1777,4.1777,4.1777,4.1968,4.1957,4.1944,4.1928,4.1918,4.1906,4.1894,4.1885,4.1869,4.185,4.1846,4.1826,4.181,4.1784,4.1773,4.1756,4.1758,4.1752,4.1751,4.175,4.1749,4.1783,4.1752,4.1752,4.1752,4.1752,4.1752,0,4.1939,4.1932,4.1917,4.19,4.1888,4.1889,4.1874,4.1863,4.1846,4.1833,4.1818,4.1796,4.1777,4.1764,4.1745,4.1734,4.1733,4.1729,4.173,4.1728,4.1748,4.1754,4.1731,4.1731,4.1731,4.1731,4.1731,4.1731,4.1923,4.1903,4.1899,4.1874,4.1866,4.1848,4.184,4.1829,4.1818,4.1795,4.178,4.1772,4.1759,4.1739,4.1722,4.1718,4.1711,4.1708,4.1704,4.1724,4.1726,4.1728,4.1733,4.1707,4.1707,4.1685,4.1685,4.1685]}]]